New River MCAS, NC

4:15 AM EDT on April 30, 2017 (GMT -0400)
New River Marine Corps Air Station

Weather History for KNCA - December, 2014

Change the Weather History Date:

Saturday, December 6, 2014

  Actual Average Record
Temperature  
Mean Temperature 60 °F -  
Max Temperature 68 °F 59 °F 79 °F (1998)
Min Temperature 52 °F 38 °F 24 °F (2010)
Degree Days  
Heating Degree Days 5    
Growing Degree Days 10 (Base 50)    
Moisture  
Dew Point 58 °F    
Average Humidity 91    
Maximum Humidity 100    
Minimum Humidity 81    
Precipitation  
Precipitation 0.45 in - - ()
Sea Level Pressure  
Sea Level Pressure 30.15 in    
Wind  
Wind Speed 4 mph (SSW)    
Max Wind Speed 13 mph    
Max Gust Speed -    
Visibility 7 miles    
Events Rain    
Averages and records for this station are not official NWS values.
T = Trace of Precipitation, MM = Missing Value Source: NWS Daily Summary

Daily Weather History Graph

Daily Weather History Graph

Search for Another Location

Airport or City:

Trip Planner

Search our weather history database for the weather conditions in past years. The results will help you decide how hot, cold, wet, or windy it might be!

Date:

Astronomy

Dec. 06, 2014 Rise Set
Actual Time 7:02 AM EST 4:58 PM EST
Civil Twilight 6:35 AM EST 5:26 PM EST
Nautical Twilight 6:03 AM EST 5:57 PM EST
Astronomical Twilight 5:33 AM EST 6:28 PM EST
Moon 5:31 PM EST (12/6) 6:54 AM EST (12/6)
Length of Visible Light 10h 51m
Length of Day
9h 55m
Full, 100% of the Moon is Illuminated
Dec 6
Full
Dec 14
Last Quarter
Dec 21
New
Dec 28
First Quarter
Jan 4
Full

Hourly Weather History & Observations

Time (EST) Temp. Dew Point Humidity Pressure Visibility Wind Dir Wind Speed Gust Speed Precip Events Conditions
12:56 AM 52.0 °F 48.0 °F 86% 30.31 in 10.0 mi North 4.6 mph - N/A   Mostly Cloudy
1:56 AM 52.0 °F 48.0 °F 86% 30.30 in 10.0 mi Calm Calm - N/A   Overcast
2:56 AM 52.0 °F 48.0 °F 86% 30.28 in 10.0 mi Calm Calm - 0.00 in Rain Light Rain
3:56 AM 53.1 °F 48.9 °F 86% 30.26 in 10.0 mi Calm Calm - 0.01 in   Overcast
4:56 AM 53.1 °F 48.9 °F 86% 30.26 in 10.0 mi Calm Calm - N/A   Overcast
5:56 AM 53.1 °F 51.1 °F 93% 30.26 in 10.0 mi Calm Calm - 0.01 in   Overcast
6:56 AM 54.0 °F 52.0 °F 93% 30.26 in 7.0 mi Calm Calm - 0.00 in Rain Light Rain
7:20 AM 54.0 °F 52.0 °F 93% 30.25 in 2.5 mi East 3.5 mph - 0.04 in Rain Rain
7:27 AM 54.0 °F 53.1 °F 97% 30.24 in 1.2 mi East 6.9 mph - 0.10 in Rain Heavy Rain
7:31 AM 54.0 °F 53.1 °F 97% 30.24 in 1.0 mi East 9.2 mph - 0.12 in Rain Heavy Rain
7:39 AM 54.0 °F 53.1 °F 97% 30.23 in 2.0 mi East 10.4 mph - 0.12 in Rain Light Rain
7:47 AM 55.0 °F 54.0 °F 96% 30.23 in 6.0 mi East 8.1 mph - 0.12 in   Overcast
7:56 AM 55.0 °F 54.0 °F 96% 30.24 in 5.0 mi East 6.9 mph - 0.12 in   Overcast
8:11 AM 55.9 °F 55.0 °F 97% 30.23 in 5.0 mi SE 5.8 mph - N/A   Overcast
8:21 AM 55.9 °F 55.9 °F 100% 30.23 in 5.0 mi ESE 4.6 mph - N/A   Overcast
8:36 AM 57.0 °F 55.9 °F 96% 30.23 in 1.8 mi SE 3.5 mph - N/A   Overcast
8:46 AM 57.9 °F 57.0 °F 97% 30.23 in 1.0 mi Calm Calm - N/A   Overcast
8:54 AM 60.8 °F 59.0 °F 94% 30.23 in 2.0 mi Calm Calm - N/A   Overcast
8:56 AM 60.1 °F 59.0 °F 96% 30.24 in 3.0 mi SE 3.5 mph - N/A   Mostly Cloudy
9:06 AM 61.0 °F 59.0 °F 93% 30.23 in 7.0 mi SE 3.5 mph - N/A   Mostly Cloudy
9:56 AM 63.0 °F 60.1 °F 90% 30.22 in 10.0 mi East 4.6 mph - N/A   Scattered Clouds
10:28 AM 64.9 °F 61.0 °F 87% 30.21 in 10.0 mi Calm Calm - N/A   Mostly Cloudy
10:49 AM 66.9 °F 62.1 °F 84% 30.19 in 10.0 mi East 4.6 mph - N/A   Overcast
10:56 AM 66.9 °F 62.1 °F 84% 30.19 in 10.0 mi SE 5.8 mph - N/A   Overcast
11:56 AM 68.0 °F 63.0 °F 84% 30.16 in 10.0 mi SW 6.9 mph - N/A   Mostly Cloudy
12:04 PM 68.0 °F 62.1 °F 81% 30.15 in 10.0 mi SSW 5.8 mph - N/A   Mostly Cloudy
12:56 PM 68.0 °F 63.0 °F 84% 30.14 in 10.0 mi Calm Calm - N/A   Overcast
1:37 PM 68.0 °F 63.0 °F 84% 30.11 in 10.0 mi WNW 4.6 mph - N/A   Overcast
1:42 PM 68.0 °F 63.0 °F 84% 30.10 in 10.0 mi Calm Calm - N/A   Overcast
1:56 PM 68.0 °F 63.0 °F 84% 30.10 in 10.0 mi Calm Calm - N/A   Overcast
2:40 PM 68.0 °F 63.0 °F 84% 30.09 in 10.0 mi West 5.8 mph - N/A   Overcast
2:56 PM 66.9 °F 63.0 °F 87% 30.09 in 10.0 mi West 4.6 mph - N/A   Mostly Cloudy
3:56 PM 66.9 °F 62.1 °F 84% 30.08 in 10.0 mi SW 4.6 mph - N/A   Mostly Cloudy
4:56 PM 64.0 °F 61.0 °F 90% 30.07 in 10.0 mi WSW 3.5 mph - N/A   Scattered Clouds
5:56 PM 62.1 °F 60.1 °F 93% 30.06 in 10.0 mi Calm Calm - N/A   Partly Cloudy
6:56 PM 62.1 °F 61.0 °F 96% 30.06 in 9.0 mi Calm Calm - 0.00 in Rain Light Rain
7:56 PM 62.1 °F 60.1 °F 93% 30.05 in 7.0 mi South 4.6 mph - 0.03 in Rain Light Rain
8:32 PM 62.1 °F 60.1 °F 93% 30.04 in 1.8 mi SSW 5.8 mph - 0.09 in Rain Heavy Rain
8:43 PM 62.1 °F 60.1 °F 93% 30.04 in 3.0 mi SSW 3.5 mph - 0.13 in Rain Light Rain
8:56 PM 62.1 °F 60.1 °F 93% 30.04 in 4.0 mi South 5.8 mph - 0.16 in Rain Rain
9:20 PM 62.1 °F 60.1 °F 93% 30.03 in 2.0 mi SW 9.2 mph - 0.09 in Rain Rain
9:25 PM 62.1 °F 60.1 °F 93% 30.03 in 3.0 mi WSW 8.1 mph - 0.10 in Rain Rain
9:32 PM 62.1 °F 60.1 °F 93% 30.04 in 4.0 mi West 8.1 mph - 0.12 in Rain Light Rain
9:42 PM 62.1 °F 60.1 °F 93% 30.03 in 9.0 mi WSW 9.2 mph - 0.12 in Rain Light Rain
9:56 PM 62.1 °F 60.1 °F 93% 30.04 in 9.0 mi West 8.1 mph - 0.12 in   Overcast
10:13 PM 62.1 °F 60.1 °F 93% 30.03 in 8.0 mi West 8.1 mph - N/A   Overcast
10:43 PM 62.1 °F 60.1 °F 93% 30.03 in 9.0 mi West 8.1 mph - N/A   Overcast
10:56 PM 62.1 °F 60.1 °F 93% 30.04 in 9.0 mi WNW 9.2 mph - N/A   Overcast
11:05 PM 62.1 °F 60.1 °F 93% 30.03 in 8.0 mi WNW 9.2 mph - N/A   Overcast
11:30 PM 62.1 °F 59.0 °F 90% 30.03 in 9.0 mi WNW 10.4 mph - N/A   Overcast
11:46 PM 61.0 °F 59.0 °F 93% 30.02 in 10.0 mi NW 12.7 mph - N/A   Overcast
11:56 PM 61.0 °F 57.9 °F 90% 30.03 in 10.0 mi WNW 10.4 mph - N/A   Overcast